TIME,DELAY(SENSOR),PRES,T(CTD),SAL,OXYGEN,RAWTEMP,T(OPTODE),TCPHASE,TURBIDITY,TURBIDITY_GAIN,FLUOR,BETA,CDOM,ED411.5,ED443.8,ED489.6,PAR,COMP,TILT,TILTY(TILT),CHECK
1340483574,6468,229.0299987792968800,5.9409999847412110,34.8746986389160160,342.4812927246094000,623.0678710937500000,5.9216017723083500,32.5422286987304700,16,3,48,109,61,2147638184,2147396731,2147280260,2148317645,1203,0,-4,354
1340483635,6469,225.4700012207031200,6.0145001411437990,34.8793983459472660,338.9717102050781000,620.9990844726562000,5.9882388114929200,32.6258316040039060,16,3,48,108,62,2147639921,2147395912,2147281690,2148321178,615,2,-4,8773
1340483696,6469,221.9299926757812500,6.0658001899719240,34.8890991210937500,329.1962890625000000,619.3206787109375000,6.0422668457031250,32.9365196228027340,15,3,50,107,64,2147643428,2147393416,2147277938,2148317540,3425,2,-4,19314
1340483757,6467,218.5500030517578000,6.0998997688293460,34.8885993957519500,325.9294128417969000,618.3707275390625000,6.0728359222412110,33.0358390808105500,16,3,49,105,62,2147637256,2147394618,2147281265,2148320530,3191,0,-4,35688
1340483818,6468,215.2299957275390600,6.0507001876831055,34.8787994384765600,326.7051086425781000,619.8599243164062000,6.0249137878417970,33.0343513488769500,16,3,48,106,64,2147639455,2147395492,2147281270,2148319350,2872,0,-4,17819
1340483879,6468,212.0599975585937500,6.0507001876831055,34.8745994567871100,330.0004882812500000,619.6243286132812000,6.0324969291687010,32.9131507873535160,16,3,48,107,64,2147639405,2147392196,2147279519,2148320739,2495,0,-4,41415
1340483940,6469,208.9900054931640600,6.0961999893188480,34.8769989013671900,330.2540893554687500,618.1254882812500000,6.0807251930236820,32.8782691955566400,15,3,48,107,62,2147639213,2147392255,2147282221,2148321641,2171,2,-4,47797
1340484001,6504,206.0500030517578000,6.1982002258300780,34.8898010253906250,329.9495849609375000,615.7319946289062000,6.1576957702636720,32.8471603393554700,16,3,48,104,63,2147641142,2147392826,2147282705,2148318980,1777,0,-4,53641
1340484062,6469,203.2299957275390600,6.1866998672485350,34.8867988586425800,330.6777954101562500,615.3104858398438000,6.1712460517883300,32.8140716552734400,16,3,49,105,64,2147639843,2147392969,2147280612,2148321568,1581,0,-4,32447
1340484123,6469,200.5599975585937500,6.1237998008728030,34.8736991882324200,331.5971984863281000,617.1989135742188000,6.1105308532714840,32.8147583007812500,16,3,50,109,64,2147641023,2147393037,2147281919,2148318755,1437,0,-4,57032
1340484186,6467,197.9600067138672000,6.1147999763488770,34.8695983886718750,331.8699035644531000,617.5538940429688000,6.0991120338439940,32.8114700317382800,16,3,48,109,62,2147641119,2147391990,2147281187,2148318454,914,0,-4,43376
1340484247,6469,195.5899963378906200,6.2196002006530760,34.8791007995605500,330.4083862304687500,614.6207885742188000,6.1934108734130860,32.8115386962890600,16,3,48,105,64,2147637426,2147390651,2147278431,2148322257,426,0,-4,40730
1340484337,6469,191.6100006103515600,6.2673997879028320,34.8848991394043000,331.7860107421875000,612.9589233398438000,6.2468028068542480,32.7346687316894500,16,3,48,104,62,2147639848,2147392781,2147279446,2148320959,3217,0,-4,46868
1340484398,6468,188.1999969482422000,6.2765002250671390,34.8839988708496100,333.5228881835937500,612.5966796875000000,6.2584362030029300,32.6674385070800800,16,3,48,105,62,2147634605,2147392754,2147279149,2148320370,2601,2,-4,2273
1340484461,6468,184.6999969482422000,6.2831001281738280,34.8805007934570300,331.0174865722656000,612.0830078125000000,6.2749309539794920,32.7463607788085940,16,3,48,105,62,2147637129,2147392424,2147280127,2148318824,2234,0,-4,58854
1340484522,6467,181.3899993896484400,6.2687997817993160,34.8713989257812500,327.9526062011719000,612.6353149414062000,6.2571959495544430,32.8640518188476560,16,3,49,111,63,2147637037,2147393571,2147278907,2148321416,1752,0,-4,41765
1340484585,6469,178.0599975585937500,6.2972002029418945,34.8726005554199200,326.8971862792969000,612.0507202148438000,6.2759699821472170,32.8914794921875000,16,3,48,108,62,2147639666,2147393969,2147278047,2148320872,1332,0,-4,25401
1340484646,6468,174.8200073242187500,6.2779998779296875,34.8675994873046900,326.6834106445312500,612.5996093750000000,6.2583408355712890,32.9083786010742200,16,3,48,108,64,2147637887,2147393823,2147278637,2148320209,997,0,-4,44919
1340484709,6467,171.5099945068359400,6.1785998344421390,34.8442993164062500,328.9094848632812500,615.4437866210938000,6.1669578552246090,32.8787307739257800,16,3,50,115,62,2147640250,2147395016,2147277270,2148318884,370,0,-4,3835
1340484770,6467,168.3699951171875000,6.1689000129699710,34.8409996032714840,333.6824035644531000,615.8696289062500000,6.1532731056213380,32.7186317443847660,16,3,50,111,62,2147636383,2147393622,2147277658,2148319574,3141,0,-4,25023
1340484833,6467,165.1199951171875000,6.2010998725891110,34.8401985168457000,332.1777038574219000,614.9932861328125000,6.1814398765563965,32.7557792663574200,16,3,49,113,64,2147639044,2147394111,2147281219,2148318038,2707,0,-4,9721
1340484894,6467,161.9100036621093800,6.1858000755310060,34.8362007141113300,331.2052001953125000,615.4265747070312000,6.1675109863281250,32.7976799011230500,16,3,50,113,62,2147636507,2147394403,2147280045,2148320662,2223,2,-4,42114
1340484957,6469,158.5500030517578000,6.1290001869201660,34.8204994201660160,325.8994140625000000,616.9937744140625000,6.1171259880065920,33.0128593444824200,16,3,50,111,64,2147639135,2147394929,2147282628,2148318111,1897,0,-4,24591
1340485018,6467,155.2799987792968800,6.1662998199462890,34.8222999572753900,327.0986938476562500,616.1052856445312000,6.1456928253173830,32.9545707702636700,16,3,49,114,61,2147641828,2147395647,2147280639,2148321440,1506,0,-4,11290
1340485081,6468,151.7700042724609400,6.1522002220153810,34.7612991333007800,334.4797973632812500,616.3715820312500000,6.1371312141418460,32.6997795104980500,16,3,50,110,63,2147636873,2147393933,2147279158,2148318463,968,2,-4,28521
1340485142,6468,148.2400054931640600,6.2439999580383300,34.8244018554687500,324.8416137695312500,613.8876953125000000,6.2169671058654785,32.9967002868652340,16,3,49,108,64,2147637275,2147393371,2147281288,2148318189,584,0,-4,1786
1340485205,6467,144.4199981689453000,6.2023000717163090,34.8097991943359400,330.4072875976562500,615.0479125976562000,6.1796841621398930,32.8190002441406250,16,3,50,112,63,2147639240,2147395245,2147278811,2148317873,98,2,-4,43543
1340485266,6468,140.5899963378906200,6.2097997665405270,34.8083992004394500,333.2745056152344000,614.5842285156250000,6.1945881843566895,32.7107505798339840,16,3,50,114,64,2147637617,2147393046,2147278756,2148319372,3060,1,-4,60472
1340485352,6468,135.3000030517578000,6.2294998168945310,34.8067016601562500,335.8579101562500000,614.1254882812500000,6.2093257904052730,32.6129302978515600,16,3,50,116,62,2147639048,2147393896,2147280598,2148317297,2584,0,-4,24680
1340485413,6466,132.0800018310547000,6.2357001304626465,34.8049011230468750,337.6242065429687500,613.7877807617188000,6.2201771736145020,32.5465202331543000,16,3,50,116,62,2147640818,2147391034,2147280419,2148318504,2267,0,-4,19318
1340485476,6468,128.6000061035156200,6.2620000839233400,34.8064994812011700,337.4804992675781000,613.1350097656250000,6.2411460876464840,32.5400085449218750,16,3,50,117,63,2147639922,2147391789,2147282970,2148320049,2126,0,-4,63975
1340485537,6466,125.1299972534179700,6.2704000473022460,34.8031005859375000,341.7143859863281000,612.8424072265625000,6.2505440711975100,32.3907508850097660,16,3,50,117,62,2147640781,2147393658,2147281389,2148320873,2190,0,-4,50436
1340485600,6466,121.5400009155273400,6.2894001007080080,34.7998008728027340,347.2477111816406000,612.2565917968750000,6.2693581581115720,32.1952781677246100,16,3,50,118,62,2147640283,2147394527,2147282897,2148317402,2226,0,-4,5989
1340485661,6467,118.1999969482421900,6.3028998374938965,34.7975997924804700,350.6026000976562500,611.9044799804688000,6.2806639671325680,32.0786018371582000,16,3,52,121,61,2147639067,2147395208,2147284941,2148319707,2053,2,-4,6762
1340485724,6468,114.9000015258789000,6.3077001571655270,34.7961997985839840,352.3117065429687500,611.6550292968750000,6.2886748313903810,32.0184516906738300,16,3,52,116,62,2147638655,2147395062,2147284904,2148317983,1939,0,-4,47200
1340485785,6469,111.9199981689453100,6.3150000572204590,34.7938995361328100,352.9462890625000000,611.4854125976562000,6.2941188812255860,31.9948005676269530,16,3,52,118,62,2147640516,2147395465,2147288836,2148318106,1709,2,-4,13661
1340485848,6469,109.0699996948242200,6.3224000930786130,34.7924995422363300,353.1198120117187500,611.2379760742188000,6.3020629882812500,31.9852008819580080,16,3,52,118,61,2147640607,2147393256,2147291647,2148320447,1435,2,-4,55940
1340485909,6467,106.5999984741211000,6.3288002014160160,34.7906990051269500,353.7359924316406000,611.0222778320312000,6.3089852333068850,31.9614906311035160,16,3,52,119,63,2147637293,2147395465,2147291958,2148320246,1027,0,-4,31606
1340485972,6468,104.3499984741211000,6.3362998962402340,34.7893981933593750,353.7756958007812500,610.7739257812500000,6.3169589042663570,31.9559097290039060,16,3,52,121,62,2147637827,2147395821,2147293187,2148320608,806,0,-4,22736
1340486033,6468,102.3199996948242200,6.3480000495910645,34.7882003784179700,354.1568908691406000,610.4158935546875000,6.3284487724304200,31.9373607635498050,16,3,54,119,62,2147639720,2147395185,2147294289,2148321654,660,1,-4,11631
1340486119,6466,98.9599990844726600,6.3737001419067380,34.7846984863281250,355.3330993652344000,609.5496826171875000,6.3562450408935550,31.8846302032470700,16,3,54,125,62,2147637188,2147392882,2147296470,2148322358,414,0,-4,6557
1340486180,6466,95.7300033569336000,6.4054999351501465,34.7802009582519500,355.9490051269531000,608.6823120117188000,6.3840708732604980,31.8498306274414060,16,3,56,127,62,2147641956,2147397115,2147296543,2148321516,3336,2,-4,52453
1340486243,6466,92.4700012207031200,6.4145998954772950,34.7774009704589840,354.4195861816406000,608.2874145507812000,6.3967418670654300,31.8925495147705080,16,3,55,118,62,2147635830,2147399167,2147297878,2148321873,3038,0,-4,61947
1340486304,6469,89.4199981689453100,6.4328999519348145,34.7756004333496100,354.1048889160156000,607.7877807617188000,6.4127640724182130,31.8943290710449220,16,3,60,127,62,2147640195,2147396145,2147299546,2148319492,2464,0,-4,52153
1340486367,6467,86.3600006103515600,6.4534001350402830,34.7729988098144500,355.7030029296875000,607.1569824218750000,6.4329891204833980,31.8317298889160160,16,3,63,129,62,2147639601,2147396346,2147298624,2148321114,2244,0,-4,406
1340486428,6465,83.4499969482421900,6.4619002342224120,34.7718009948730500,356.2116088867187500,606.7697753906250000,6.4454021453857420,31.8089904785156250,16,3,64,127,62,2147641156,2147395775,2147299890,2148322559,1942,0,-4,60535
1340486491,6467,80.3600006103515600,6.5102000236511230,34.7676010131835940,355.8962097167969000,605.4718017578125000,6.4870052337646480,31.7972602844238280,16,3,67,127,63,2147643003,2147396544,2147301581,2148322550,1703,0,-4,20911
1340486552,6468,77.3799972534179700,6.5429000854492190,34.7667999267578100,355.4310913085937500,604.3781738281250000,6.5220470428466800,31.7936191558837900,16,3,72,128,62,2147640305,2147395812,2147301540,2148322527,1398,2,-4,7603
1340486615,6469,74.1800003051757800,6.5550999641418460,34.7666015625000000,356.2034912109375000,603.9072265625000000,6.5371341705322270,31.7607192993164060,16,3,77,131,62,2147637947,2147394066,2147307725,2148322285,1125,1,-4,38610
1340486676,6467,70.9499969482421900,6.5759000778198240,34.7657012939453100,356.9328002929687500,603.2019042968750000,6.5597209930419920,31.7252407073974600,16,3,80,135,62,2147641092,2147397938,2147311244,2148326596,192,1,-4,24731
1340486739,6467,67.5699996948242200,6.6219000816345215,34.7620010375976560,356.5657958984375000,601.9119262695312000,6.6010251045227050,31.7154598236084000,16,3,87,137,62,2147638861,2147395748,2147319392,2148325562,3421,0,-4,27275
1340486800,6468,64.3199996948242200,6.6659998893737790,34.7591018676757800,356.0322875976562500,600.5219726562500000,6.6455059051513670,31.7091407775878900,15,3,92,137,62,2147639277,2147402271,2147329882,2148329910,3105,0,-4,57537
1340486863,6470,61.0400009155273440,6.7294998168945310,34.7569999694824200,356.1651000976562500,598.7322998046875000,6.7027587890625000,31.6747894287109380,16,3,105,138,62,2147641896,2147405494,2147341357,2148336132,2561,2,-4,38801
1340486924,6469,58.1199989318847660,6.7508001327514650,34.7583999633789060,356.2192077636719000,597.8366699218750000,6.7313981056213380,31.6582794189453120,16,3,107,145,62,2147643423,2147408004,2147354189,2148338289,1981,2,-4,25795
1340486987,6470,55.0800018310546900,6.8807001113891600,34.7607994079589840,353.2168884277344000,593.6506958007812000,6.8651518821716310,31.6845397949218750,22,3,107,143,62,2147644419,2147408881,2147362989,2148342724,2231,1,-4,39291
1340487048,6467,52.4199981689453100,6.9426999092102050,34.7584991455078100,349.8902893066406000,592.0537719726562000,6.9161338806152340,31.7658691406250000,16,3,87,135,63,2147642486,2147409764,2147371478,2148348722,1977,0,-4,31579
1340487111,6467,49.9799995422363300,7.0858001708984375,34.7616996765136700,346.4408874511719000,587.6525878906250000,7.0565199851989750,31.8059806823730470,16,3,92,132,62,2147643889,2147412799,2147374495,2148346641,1866,1,-4,46393
1340487172,6467,47.8100013732910160,7.1756000518798830,34.7635002136230500,345.8912048339844000,584.6090087890625000,7.1535019874572750,31.7732791900634770,15,3,100,139,63,2147648332,2147414582,2147379871,2148353458,1436,2,-4,16128
1340487260,6469,44.1699981689453100,7.6157999038696290,34.7588996887207000,348.1879882812500000,571.1124267578125000,7.5825371742248535,31.4759407043457030,21,3,163,181,62,2147650792,2147416900,2147395675,2148362655,215,0,-4,61885
1340487321,6468,40.9199981689453100,7.6637001037597660,34.7619018554687500,350.6229858398437500,567.5136718750000000,7.6966571807861330,31.3382205963134770,29,3,173,186,62,2147654701,2147422916,2147418340,2148373947,3367,2,-4,44740
1340487384,6471,37.5999984741210940,8.3150997161865230,34.7360992431640600,349.6897888183594000,549.5183715820312000,8.2656612396240230,31.0796203613281250,33,3,308,266,62,2147659145,2147436571,2147456804,2148397137,2670,0,-4,13793
1340487445,6469,35.1500015258789060,8.5850000381469730,34.7387008666992200,352.2172851562500000,540.9080200195312000,8.5369634628295900,30.8626708984375000,37,3,345,263,62,2147663954,2147443409,2147480854,2148408959,1977,0,-4,59349
1340487508,6470,33.1599998474121100,8.9909000396728520,34.7290000915527340,351.7567138671875000,526.6032714843750000,8.9863739013671880,30.6545906066894530,43,3,445,341,64,2147671241,2147448767,2147497339,2148416589,1879,2,-4,27154
1340487591,6472,31.3700008392334000,9.4469003677368160,34.7131996154785160,352.9809875488281000,515.0980224609375000,9.3466958999633790,30.4390697479248050,92,3,546,332,62,2147676812,2147458659,2147519515,2148433219,720,0,-4,53106
1340487681,6470,28.9400005340576170,9.8226003646850590,34.7197990417480500,355.9913024902344000,499.5430908203125000,9.8322963714599610,30.1094703674316400,62,3,624,465,64,2147706861,2147492698,2147632717,2148488292,473,2,-4,39184
1340487742,6470,26.2099990844726560,9.9728002548217770,34.7215995788574200,361.1377868652344000,495.5975952148437500,9.9551963806152340,29.8915691375732420,68,3,650,468,64,2147749101,2147551972,2147777786,2148561247,3512,1,-4,46389
1340487805,6471,23.1499996185302730,10.4406003952026370,34.7150001525878900,361.7312011718750000,474.4632873535156000,10.6117401123046880,29.5627498626709000,87,3,815,525,65,2147839688,2147666792,2148051299,2148694546,2369,0,-6,536
1340487866,6469,20.9300003051757800,11.4333000183105470,34.7000007629394500,363.9419860839844000,451.3645019531250000,11.3260698318481450,29.1639595031738280,87,3,882,569,64,2147916384,2147759825,2148248196,2148785663,2920,2,-4,10436
1340487955,6470,18.6399993896484380,11.8004999160766600,34.7154006958007800,364.9717102050781000,437.6878051757812500,11.7475700378417970,28.9403991699218750,100,3,949,604,62,2148091615,2147971126,2148588100,2148916804,2290,1,-4,2476
1340488016,6471,16.3400001525878900,12.0486001968383790,34.7126998901367200,366.1393127441406000,429.0296020507812500,12.0138702392578120,28.7851104736328120,112,3,1071,670,62,2148376041,2148315442,2149166984,2149170591,2134,0,-4,5889
1340488095,6471,13.2600002288818360,12.2147998809814450,34.7132987976074200,368.6011962890625000,422.6932983398437500,12.2085103988647460,28.6246700286865230,124,3,982,647,62,2149237032,2149393631,2151002276,2150037937,1436,1,-6,13854
1340488166,6470,9.7399997711181640,12.6176996231079100,34.7198982238769500,364.4934082031250000,410.5170898437500000,12.5819902420043950,28.5786705017089840,110,3,717,585,62,2151079277,2151516383,2153713288,2151321933,1584,1,-5,1030
1340488229,6471,6.4499998092651370,12.7143001556396480,34.7187995910644500,361.2005920410156000,406.3210144042969000,12.7105302810668950,28.6194305419921880,101,3,665,622,61,2154465161,2155308731,2157885929,2153576411,1221,7,-2,61185
1340488281,6470,3.5499999523162840,12.7115001678466800,34.7201004028320300,360.4346008300781000,406.2593994140625000,12.7124204635620120,28.6415290832519530,107,3,652,544,61,2158516433,2159602216,2162453595,2156742605,1306,0,7,18143
1340488328,6469,2.2100000381469727,0.0000000000000000,0.0000000000000000,360.3381042480469000,406.4891967773437500,12.7053804397583000,28.6475391387939450,102,3,648,541,60,2161648113,2163055268,2165429507,2159415584,713,-8,2,48218
1340488359,6471,0.7900000214576721,0.0000000000000000,0.0000000000000000,359.9331970214844000,406.4393920898437500,12.7068996429443360,28.6589698791503900,104,3,624,550,60,2165464141,2168049595,2171362125,2165517078,783,25,-2,16101
